AV194 Weather Reports


Display with metric or nautical units.
time (UTC)temp
F
wind
direction
speed
MPH
gust
MPH
rain 1hr
in
rain 24hr
in
rain mn
in
humidity
%
barometer
mb
20260506082045 57 84 0.0 1.0 0.00 0.00 0.00 83 1007.9
20260506081545 57 60 0.0 1.0 0.00 0.00 0.00 83 1007.9
20260506081046 57 60 0.0 1.0 0.00 0.00 0.00 83 1007.9
20260506080546 57 60 0.0 2.0 0.00 0.00 0.00 83 1007.9
20260506073046 57 214 0.0 1.0 0.00 0.00 0.00 81 1007.8
20260506072542 57 214 0.0 2.0 0.00 0.00 0.00 82 1007.7
20260506072042 57 214 1.0 2.0 0.00 0.00 0.00 81 1007.7
20260506071542 57 211 0.0 1.0 0.00 0.00 0.00 81 1007.6
20260506071041 57 211 0.0 1.0 0.00 0.00 0.00 81 1007.6
20260506070642 57 211 0.0 1.0 0.00 0.00 0.00 81 1007.6
20260506062034 59 211 0.0 0.0 0.00 0.00 0.00 77 1007.7
20260506061536 59 211 0.0 1.0 0.00 0.00 0.00 77 1007.6
20260506061033 59 211 0.0 1.0 0.00 0.00 0.00 76 1007.5
20260506060530 59 211 0.0 1.0 0.00 0.00 0.00 76 1007.5
20260506051022 61 197 0.0 1.0 0.00 0.00 0.00 71 1007.6
20260506050525 61 197 0.0 1.0 0.00 0.00 0.00 71 1007.6
20260506045018 62 265 0.0 2.0 0.00 0.00 0.00 69 1007.9
20260506044524 62 265 0.0 2.0 0.00 0.00 0.00 69 1007.8
20260506044018 62 187 0.0 2.0 0.00 0.00 0.00 68 1007.8
20260506043517 62 182 0.0 2.0 0.00 0.00 0.00 67 1007.9
20260506043016 63 182 0.0 2.0 0.00 0.00 0.00 67 1007.9
20260506042515 63 197 1.0 2.0 0.00 0.00 0.00 67 1007.9
20260506042018 63 198 0.0 5.0 0.00 0.00 0.00 66 1007.9
20260506041517 63 195 0.0 5.0 0.00 0.00 0.00 66 1007.8
20260506041013 63 238 1.0 4.0 0.00 0.00 0.00 66 1007.8
20260506040512 63 196 1.0 4.0 0.00 0.00 0.00 66 1007.9
20260506040033 63 179 0.0 2.0 0.00 0.00 0.00 66 1007.8
20260506035513 64 197 0.0 2.0 0.00 0.00 0.00 65 1007.8
20260506035013 64 178 0.0 6.0 0.00 0.00 0.00 65 1007.9
20260506034512 64 218 2.0 6.0 0.00 0.00 0.00 64 1007.8
20260506034011 64 209 0.0 4.0 0.00 0.00 0.00 64 1007.9
20260506033511 64 210 1.0 2.0 0.00 0.00 0.00 64 1007.8
20260506033011 65 247 1.0 4.0 0.00 0.00 0.00 63 1007.7
20260506032511 65 213 1.0 6.0 0.00 0.00 0.00 63 1007.8
20260506032011 65 225 1.0 6.0 0.00 0.00 0.00 63 1007.7
20260506031526 65 192 0.0 5.0 0.00 0.00 0.00 62 1007.6
20260506031013 65 207 1.0 3.0 0.00 0.00 0.00 62 1007.7
20260506030511 65 243 0.0 4.0 0.00 0.00 0.00 62 1007.8
20260506030010 65 213 1.0 5.0 0.00 0.00 0.00 62 1007.7
20260506025510 66 194 0.0 5.0 0.00 0.00 0.00 62 1007.7
20260506025011 66 191 0.0 4.0 0.00 0.00 0.00 62 1007.7
20260506024517 66 191 1.0 4.0 0.00 0.00 0.00 61 1007.6
20260506024009 66 205 0.0 4.0 0.00 0.00 0.00 61 1007.7
20260506023509 66 184 1.0 4.0 0.00 0.00 0.00 61 1007.6
20260506023011 66 200 0.0 4.0 0.00 0.00 0.00 62 1007.5
20260506022509 66 200 1.0 4.0 0.00 0.00 0.00 61 1007.5
20260506022009 66 200 1.0 2.0 0.00 0.00 0.00 61 1007.6
20260506021511 66 186 1.0 2.0 0.00 0.00 0.00 61 1007.6
20260506021009 67 109 0.0 4.0 0.00 0.00 0.00 60 1007.6
20260506020511 67 189 0.0 4.0 0.00 0.00 0.00 59 1007.5
20260506020008 67 199 1.0 4.0 0.00 0.00 0.00 60 1007.5
20260506015508 67 178 0.0 5.0 0.00 0.00 0.00 60 1007.5
20260506015008 67 217 1.0 5.0 0.00 0.00 0.00 60 1007.5
20260506014512 67 207 1.0 5.0 0.00 0.00 0.00 59 1007.5
20260506014007 68 210 2.0 5.0 0.00 0.00 0.00 57 1007.5
20260506013512 68 205 0.0 4.0 0.00 0.00 0.00 57 1007.5
20260506013007 69 183 1.0 5.0 0.00 0.00 0.00 56 1007.4
20260506012508 69 198 1.0 3.0 0.00 0.00 0.00 55 1007.3
20260506012006 69 253 1.0 3.0 0.00 0.00 0.00 55 1007.2
20260506011507 70 187 1.0 4.0 0.00 0.00 0.00 55 1007.1
20260506011006 70 200 0.0 6.0 0.00 0.00 0.00 54 1007.1
20260506010506 70 179 2.0 6.0 0.00 0.00 0.00 54 1007.2
20260506010012 70 244 1.0 5.0 0.00 0.00 0.00 55 1007.2
20260506005506 71 180 0.0 4.0 0.00 0.00 0.00 54 1007.2
20260506005009 71 180 1.0 3.0 0.00 0.00 0.00 52 1007.2
20260506004511 72 185 0.0 5.0 0.00 0.00 0.00 52 1007.2
20260506004009 72 257 2.0 6.0 0.00 0.00 0.00 49 1007.2
20260506003507 72 250 3.0 6.0 0.00 0.00 0.00 50 1007.0
20260506003008 72 259 1.0 6.0 0.00 0.00 0.00 49 1006.6
20260506002505 72 238 3.0 6.0 0.00 0.00 0.00 49 1006.4
20260506002008 72 227 2.0 6.0 0.00 0.00 0.00 49 1006.1
20260506001504 73 219 2.0 6.0 0.00 0.00 0.00 49 1005.9
20260506001004 73 295 2.0 6.0 0.00 0.00 0.00 48 1005.8
20260506000505 73 212 4.0 6.0 0.00 0.00 0.00 48 1005.5
20260506000003 74 52 1.0 7.0 0.00 0.00 0.00 47 1005.4
20260505235503 74 190 2.0 7.0 0.00 0.00 0.00 47 1005.3
20260505235003 74 231 3.0 7.0 0.00 0.00 0.00 46 1005.2
20260505234503 74 264 4.0 7.0 0.00 0.00 0.00 45 1005.3
20260505234003 75 159 2.0 7.0 0.00 0.00 0.00 44 1005.1
20260505233502 75 161 3.0 9.0 0.00 0.00 0.00 43 1005.0
20260505233002 75 250 3.0 9.0 0.00 0.00 0.00 43 1004.8
20260505232602 76 166 4.0 8.0 0.00 0.00 0.00 43 1004.6
20260505232002 76 178 1.0 7.0 0.00 0.00 0.00 41 1004.5
20260505231501 76 217 4.0 7.0 0.00 0.00 0.00 41 1004.4
20260505231002 77 220 3.0 8.0 0.00 0.00 0.00 40 1004.4
20260505230502 77 250 4.0 9.0 0.00 0.00 0.00 39 1004.3
20260505230002 77 139 4.0 9.0 0.00 0.00 0.00 40 1004.2
20260505225503 77 206 3.0 7.0 0.00 0.00 0.00 40 1004.2
20260505225101 77 244 2.0 5.0 0.00 0.00 0.00 40 1004.2
20260505224601 77 214 1.0 6.0 0.00 0.00 0.00 39 1004.1
20260505224100 78 167 3.0 9.0 0.00 0.00 0.00 38 1004.1
20260505223600 78 203 3.0 13.0 0.00 0.00 0.00 38 1004.0
20260505223101 79 237 5.0 13.0 0.00 0.00 0.00 36 1003.9
20260505222559 79 174 5.0 15.0 0.00 0.00 0.00 36 1003.9
20260505222059 79 202 6.0 15.0 0.00 0.00 0.00 35 1003.8
20260505221600 80 242 5.0 10.0 0.00 0.00 0.00 35 1003.6
20260505221059 80 229 3.0 9.0 0.00 0.00 0.00 37 1003.6
20260505220600 80 204 3.0 9.0 0.00 0.00 0.00 36 1003.5
20260505220059 80 184 1.0 7.0 0.00 0.00 0.00 34 1003.4
20260505215558 80 229 1.0 9.0 0.00 0.00 0.00 36 1003.4
20260505215158 80 203 3.0 10.0 0.00 0.00 0.00 35 1003.4
20260505214600 80 263 5.0 11.0 0.00 0.00 0.00 34 1003.4
20260505214058 81 235 4.0 16.0 0.00 0.00 0.00 34 1003.3
20260505213557 81 240 6.0 11.0 0.00 0.00 0.00 33 1003.3
20260505213059 81 175 3.0 10.0 0.00 0.00 0.00 34 1003.2
20260505212657 81 220 3.0 10.0 0.00 0.00 0.00 34 1003.0
20260505212056 81 174 4.0 11.0 0.00 0.00 0.00 34 1003.1
20260505211609 81 175 5.0 11.0 0.00 0.00 0.00 32 1003.0
20260505211056 82 74 5.0 14.0 0.00 0.00 0.00 32 1003.1
20260505210555 81 140 4.0 14.0 0.00 0.00 0.00 33 1003.0
20260505210059 81 198 6.0 10.0 0.00 0.00 0.00 32 1003.0
20260505205555 82 217 5.0 12.0 0.00 0.00 0.00 32 1003.0
20260505205057 82 155 5.0 12.0 0.00 0.00 0.00 31 1002.9
20260505204600 83 219 6.0 12.0 0.00 0.00 0.00 30 1002.9
20260505204054 83 181 5.0 12.0 0.00 0.00 0.00 31 1003.0
20260505203557 83 204 4.0 10.0 0.00 0.00 0.00 31 1003.0
20260505203058 83 198 3.0 7.0 0.00 0.00 0.00 31 1002.8
20260505202554 83 241 2.0 9.0 0.00 0.00 0.00 30 1003.0
20260505202055 83 223 4.0 12.0 0.00 0.00 0.00 30 1002.9
20260505201558 83 226 5.0 12.0 0.00 0.00 0.00 30 1003.1
20260505201052 83 216 6.0 15.0 0.00 0.00 0.00 31 1003.1
20260505200552 83 290 6.0 15.0 0.00 0.00 0.00 31 1003.4
20260505200052 83 219 3.0 13.0 0.00 0.00 0.00 32 1003.3
20260505195551 84 248 4.0 10.0 0.00 0.00 0.00 29 1003.2
20260505195051 84 252 4.0 15.0 0.00 0.00 0.00 28 1003.3
20260505194651 84 168 4.0 15.0 0.00 0.00 0.00 30 1003.3
20260505194050 84 231 5.0 10.0 0.00 0.00 0.00 29 1003.2
20260505193549 85 207 5.0 14.0 0.00 0.00 0.00 29 1003.2
20260505193050 85 233 5.0 16.0 0.00 0.00 0.00 29 1003.3
20260505192549 85 201 5.0 16.0 0.00 0.00 0.00 29 1003.3
20260505192150 85 226 8.0 16.0 0.00 0.00 0.00 29 1003.0
20260505191549 85 282 5.0 14.0 0.00 0.00 0.00 29 1003.3
20260505191050 85 96 5.0 11.0 0.00 0.00 0.00 30 1003.4
20260505190546 84 296 5.0 12.0 0.00 0.00 0.00 30 1003.6
20260505190046 85 219 5.0 12.0 0.00 0.00 0.00 31 1003.5
20260505185545 86 159 2.0 9.0 0.00 0.00 0.00 34 1003.7
20260505185044 85 159 3.0 8.0 0.00 0.00 0.00 31 1003.9
20260505184544 86 229 4.0 9.0 0.00 0.00 0.00 30 1003.9
20260505184043 86 186 3.0 12.0 0.00 0.00 0.00 34 1004.0
20260505183542 85 227 3.0 12.0 0.00 0.00 0.00 31 1004.2
20260505183141 85 229 5.0 11.0 0.00 0.00 0.00 30 1004.0
20260505182541 83 242 6.0 12.0 0.00 0.00 0.00 31 1004.3
20260505182044 84 213 5.0 15.0 0.00 0.00 0.00 30 1004.3
20260505181545 85 245 4.0 15.0 0.00 0.00 0.00 33 1004.3
20260505181039 86 237 4.0 12.0 0.00 0.00 0.00 30 1004.3
20260505180540 86 341 1.0 13.0 0.00 0.00 0.00 36 1004.4
20260505180040 85 94 4.0 13.0 0.00 0.00 0.00 31 1004.4
20260505175536 85 134 6.0 13.0 0.00 0.00 0.00 31 1004.5
20260505175035 86 209 4.0 12.0 0.00 0.00 0.00 33 1004.8
20260505174540 85 232 8.0 12.0 0.00 0.00 0.00 32 1004.8
20260505174033 85 223 3.0 13.0 0.00 0.00 0.00 32 1004.7
20260505173533 85 244 6.0 13.0 0.00 0.00 0.00 34 1005.1
20260505173032 84 207 5.0 11.0 0.00 0.00 0.00 35 1004.7
20260505172531 84 180 6.0 9.0 0.00 0.00 0.00 37 1004.8
20260505172030 85 216 5.0 12.0 0.00 0.00 0.00 33 1004.8
20260505171533 85 215 4.0 12.0 0.00 0.00 0.00 35 1005.0
20260505171032 84 245 5.0 15.0 0.00 0.00 0.00 35 1005.0
20260505170525 84 196 5.0 15.0 0.00 0.00 0.00 34 1005.1
20260505170024 84 300 5.0 11.0 0.00 0.00 0.00 35 1005.2
20260505165523 83 214 6.0 11.0 0.00 0.00 0.00 35 1005.5
20260505165023 83 201 5.0 12.0 0.00 0.00 0.00 37 1005.6
20260505164521 83 244 6.0 12.0 0.00 0.00 0.00 36 1005.9
20260505164025 83 257 5.0 10.0 0.00 0.00 0.00 35 1005.9
20260505163519 83 206 5.0 10.0 0.00 0.00 0.00 38 1006.0
20260505163019 82 198 6.0 10.0 0.00 0.00 0.00 36 1006.0
20260505162518 83 279 2.0 8.0 0.00 0.00 0.00 36 1006.1
20260505162017 82 302 1.0 8.0 0.00 0.00 0.00 40 1006.0
20260505161516 82 294 4.0 8.0 0.00 0.00 0.00 40 1006.1
20260505161019 82 187 4.0 9.0 0.00 0.00 0.00 40 1006.3
20260505160514 81 210 5.0 9.0 0.00 0.00 0.00 41 1006.4
20260505153006 76 211 2.0 6.0 0.00 0.00 0.00 49 1007.3
20260505152505 77 184 1.0 7.0 0.00 0.00 0.00 48 1007.3
20260505152008 78 236 4.0 7.0 0.00 0.00 0.00 47 1007.4
20260505151504 77 126 2.0 9.0 0.00 0.00 0.00 45 1007.5
20260505151002 77 181 3.0 9.0 0.00 0.00 0.00 46 1007.5
20260505150502 76 276 3.0 9.0 0.00 0.00 0.00 49 1007.6
20260505140551 71 221 3.0 7.0 0.00 0.00 0.00 55 1007.9
20260505125031 64 187 3.0 6.0 0.00 0.00 0.00 61 1008.1
20260505124530 63 248 3.0 6.0 0.00 0.00 0.00 63 1008.1
20260505124027 62 217 1.0 6.0 0.00 0.00 0.00 67 1008.0
20260505123530 61 296 1.0 5.0 0.00 0.00 0.00 64 1008.0
20260505123026 61 273 2.0 6.0 0.00 0.00 0.00 65 1008.0
20260505122526 61 221 1.0 7.0 0.00 0.00 0.00 66 1008.1
20260505122025 61 248 4.0 7.0 0.00 0.00 0.00 66 1008.2
20260505121524 60 251 2.0 5.0 0.00 0.00 0.00 67 1008.2
20260505121023 60 246 2.0 5.0 0.00 0.00 0.00 68 1008.2
20260505120520 60 237 3.0 5.0 0.00 0.00 0.00 67 1008.3
20260505120022 59 254 2.0 5.0 0.00 0.00 0.00 70 1008.1
20260505115518 59 232 1.0 5.0 0.00 0.00 0.00 70 1008.2
20260505115017 58 242 2.0 5.0 0.00 0.00 0.00 71 1008.3
20260505114515 57 204 2.0 5.0 0.00 0.00 0.00 72 1008.4
20260505114017 57 211 1.0 5.0 0.00 0.00 0.00 73 1008.2
20260505113512 56 227 2.0 5.0 0.00 0.00 0.00 73 1008.2
20260505113011 56 207 2.0 5.0 0.00 0.00 0.00 74 1008.2
20260505112514 55 259 1.0 3.0 0.00 0.00 0.00 75 1008.2
20260505112009 55 192 1.0 4.0 0.00 0.00 0.00 76 1008.1
20260505111512 54 206 0.0 4.0 0.00 0.00 0.00 77 1008.1
20260505111006 54 181 0.0 2.0 0.00 0.00 0.00 77 1008.1
20260505110507 54 182 1.0 5.0 0.00 0.00 0.00 78 1008.0
20260505102100 49 204 0.0 2.0 0.00 0.00 0.00 85 1008.0
20260505101603 49 204 0.0 1.0 0.00 0.00 0.00 85 1008.1
20260505101058 48 219 0.0 1.0 0.00 0.00 0.00 85 1008.0
20260505100559 48 219 0.0 1.0 0.00 0.00 0.00 85 1008.1
20260505100057 48 219 0.0 1.0 0.00 0.00 0.00 84 1008.0
20260505095553 48 219 0.0 1.0 0.00 0.00 0.00 84 1008.0
20260505095053 49 219 0.0 1.0 0.00 0.00 0.00 84 1008.0
20260505094552 49 219 0.0 1.0 0.00 0.00 0.00 83 1008.1
20260505094052 49 219 0.0 1.0 0.00 0.00 0.00 83 1008.2
20260505093551 49 219 0.0 1.0 0.00 0.00 0.00 83 1008.2
20260505093052 49 219 0.0 1.0 0.00 0.00 0.00 83 1008.2
20260505092551 49 219 0.0 1.0 0.00 0.00 0.00 83 1008.2
20260505092050 49 219 0.0 1.0 0.00 0.00 0.00 83 1008.1
20260505091552 49 219 0.0 1.0 0.00 0.00 0.00 84 1008.2
20260505091049 49 219 0.0 1.0 0.00 0.00 0.00 84 1008.2
20260505090549 49 219 0.0 1.0 0.00 0.00 0.00 84 1008.2
20260505090049 49 221 0.0 1.0 0.00 0.00 0.00 83 1008.2
20260505085548 49 221 0.0 1.0 0.00 0.00 0.00 84 1008.2
20260505085048 49 221 0.0 1.0 0.00 0.00 0.00 83 1008.2
20260505084547 49 221 0.0 1.0 0.00 0.00 0.00 83 1008.2
20260505084046 49 221 0.0 1.0 0.00 0.00 0.00 83 1008.2
20260505083547 49 221 0.0 1.0 0.00 0.00 0.00 83 1008.2
20260505083046 49 221 0.0 1.0 0.00 0.00 0.00 83 1008.2
20260505082545 49 221 0.0 1.0 0.00 0.00 0.00 82 1008.3